Regional Weather Roundup
Issued by NWS

Home | Current Version | Previous Version | Graphics & Text | Print | Product List | Glossary On
Versions: 1 2 3 4 5 6 7 8 9 10 11 12 13 14 15 16 17 18 19 20 21 22 23 24 25 26 27
000
ASUS45 KPSR 232110
RWRAZ

ARIZONA HOURLY REGIONAL WEATHER ROUNDUP
NATIONAL WEATHER SERVICE PHOENIX AZ
200 PM MST SAT JUL 23 2016

NOTE: FAIR INDICATES FEW OR NO CLOUDS BELOW 12,000 FEET WITH NO
SIGNIFICANT WEATHER AND/OR OBSTRUCTIONS TO VISIBILITY.

AZZ001>003-036-232200-
NORTHWEST ARIZONA

CITY           SKY/WX    TMP DP  RH WIND       PRES   REMARKS
BULLHEAD CITY  SUNNY    111  52  14 S16G23    29.75F HX 109
KINGMAN        SUNNY    103  40  11 SW17G28   30.00F
$$

AZZ004>008-015-016-018-232200-
NORTH CENTRAL ARIZONA

CITY           SKY/WX    TMP DP  RH WIND       PRES   REMARKS
GRAND CANYON   MOSUNNY   90  37  15 VRB6      30.27F
WILLIAMS       SUNNY     88  41  19 W5        30.35F
PRESCOTT       MOSUNNY   95  46  18 SW13G20   30.15F
FLAGSTAFF      MOSUNNY   86  42  21 VRB7      30.29F
PAYSON         MOSUNNY   97  46  17 W9G17     30.15F
PAGE           MOSUNNY  101  39  12 NW6       30.01F
$$

AZZ009>014-017-232200-
NORTHEAST ARIZONA

CITY           SKY/WX    TMP DP  RH WIND       PRES   REMARKS
WINSLOW        SUNNY     99  43  14 E10       30.10F
SAINT JOHNS    MOSUNNY   92  42  17 W5        30.15F
WINDOW ROCK    PTSUNNY   89  45  21 VRB6      30.24F
SHOW LOW       SUNNY     86  41  20 W9        30.25F
$$

AZZ023-232200-
GREATER PHOENIX AREA

CITY           SKY/WX    TMP DP  RH WIND       PRES   REMARKS
PHOENIX        MOSUNNY  107  57  19 W13G18    29.80F HX 107
BUCKEYE          N/A    108  54  16 NW13      29.82F HX 106
GLENDALE       MOSUNNY  109  57  18 S16G23    29.82F HX 109
LUKE AFB       SUNNY    107  56  18 S13G20    29.79F HX 106
DEER VALLEY    SUNNY    105  56  19 W7        29.83F HAZE    HX 104
SCOTTSDALE     SUNNY    106  55  18 W12       29.85F HX 105
MESA-FALCON    SUNNY    N/A N/A N/A W9        29.82F
MESA-GATEWAY   MOSUNNY  106  57  20 NW12G20   29.85F HX 105
$$

AZZ027-028-232200-
SOUTHWEST MARICOPA COUNTY AND PINAL COUNTY

CITY           SKY/WX    TMP DP  RH WIND       PRES   REMARKS
CASA GRANDE    SUNNY    108  55  18 W14G22    29.87F HX 106
GILA BEND      FAIR     108  51  15 W8        29.80F HX 106
$$

AZZ503-504-507>509-232200-
SOUTHEAST ARIZONA

CITY           SKY/WX    TMP DP  RH WIND       PRES   REMARKS
TUCSON         SUNNY    104  53  18 N12G20    29.95F HX 102
DAVIS-MONTHAN  SUNNY    101  55  21 NW14G21   29.94F HX 100
RYAN FIELD     SUNNY    102  55  21 W12G21    29.94F HX 101
NOGALES        SUNNY     97  57  26 VRB3      30.04F
SIERRA VISTA   SUNNY     94  53  25 CALM      30.11F
DOUGLAS        SUNNY     95  57  27 W12       30.05F
SAFFORD        SUNNY    105  48  14 W16G23    29.91F HX 101
$$

AZZ020-021-025-026-031-232200-
SOUTHWEST ARIZONA

CITY           SKY/WX    TMP DP  RH WIND       PRES   REMARKS
YUMA           SUNNY    110  60  19 S14       29.76F HX 111
$$

CAZ031-033-041-043-047-048-061-232200-
SOUTHERN CALIFORNIA

CITY           SKY/WX    TMP DP  RH WIND       PRES   REMARKS
DOWNTOWN L.A.  SUNNY     91  65  41 VRB3      29.79R
L.A. AIRPORT   PTSUNNY   82  63  52 W13       29.81S
SAN DIEGO      CLOUDY    69  65  86 S16       29.87S
BURBANK        SUNNY    100  53  20 S12       29.80F SMOKE
ONTARIO        MOSUNNY  108  30   6 W8        29.79F HX 100
RIVERSIDE      SUNNY    109  37   8 VRB7      29.78F HX 102
PALM SPRINGS   SUNNY    103  66  30 MISG      29.79F HX 107
EL CENTRO NAS  MOSUNNY  108  63  23 CALM      29.73F HX 111
IMPERIAL       MOSUNNY  112  68  24 S8G17     29.71F HX 120
BLYTHE         SUNNY    108  60  21 S15       29.77F HX 109
NEEDLES        SUNNY    112  56  16 S12G23    29.78F HX 111
$$

NVZ020-UTZ003-232200-
SOUTHERN NEVADA-UTAH

CITY           SKY/WX    TMP DP  RH WIND       PRES   REMARKS
LAS VEGAS      MOSUNNY  112  27   5 E15       29.79F HX 103
SALT LAKE CITY MOSUNNY   92  27   9 N12G17    30.08F
$$

NMZ009-TXZ055-232200-
NEW MEXICO-WEST TEXAS

CITY           SKY/WX    TMP DP  RH WIND       PRES   REMARKS
ALBUQUERQUE    CLOUDY    97  43  15 VRB6      30.09F
EL PASO        MOSUNNY  103  42  12 VRB3      29.98F
$$


........................KEY........................
SKY/WX - SKY CONDITION/WEATHER
TMP    - TEMPERATURE IN FAHRENHEIT
DP     - DEW POINT IN FAHRENHEIT
RH     - RELATIVE HUMIDITY IN PERCENT
WIND   - DIRECTION AND SPEED IN MILES PER HOUR (MPH)
VRB    - VARIABLE WIND DIRECTION
PRES   - MEAN SEA LEVEL PRESSURE IN INCHES OF MERCURY
         F - FALLING PRESSURE   R - RISING PRESSURE
         S - STEADY PRESSURE
VSB    - VISIBILITY IN MILES
HX     - HEAT INDEX IN FAHRENHEIT
WCI    - WIND CHILL INDEX IN FAHRENHEIT
TC     - TEMPERATURE IN CELSIUS WHICH IS ALSO KNOWN AS
         TEMPERATURE IN CENTIGRADE
AFB    - AIR FORCE BASE
         LUKE AFB IS LUKE AIR FORCE BASE
         DAVIS-MONTHAN IS DAVIS-MONTHAN AIR FORCE BASE
NAS    - NAVAL AIR STATION
         EL CENTRO NAS IS EL CENTRO NAVAL AIR STATION
N/A    - NOT AVAILABLE





USA.gov is the U.S. government's official web portal to all federal, state and local government web resources and services.